This is the latest recevied weather packets stored in our database for station/object AE0NK. If no packets are shown the sender has not sent any weather packets the latest 10 day(s).
| Time | Temp. | Humidity | Pressure | Rain* | Wind** | Luminosity | Snow |
|---|---|---|---|---|---|---|---|
| 1778080092 | 10° C | 42% | 1017.1 hPa | 0 mm | - | 682 W/m² | - |
| 1778079809 | 10° C | 43% | 1017 hPa | 0 mm | - | 670 W/m² | - |
| 1778079501 | 9.44° C | 46% | 1016.9 hPa | 0 mm | - | 654 W/m² | - |
| 1778079199 | 9.44° C | 44% | 1017 hPa | 0 mm | - | 582 W/m² | - |
| 1778078896 | 9.44° C | 45% | 1016.8 hPa | 0 mm | - | 592 W/m² | - |
| 1778078593 | 9.44° C | 45% | 1016.7 hPa | 0 mm | - | 605 W/m² | - |
| 1778078292 | 9.44° C | 45% | 1016.7 hPa | 0 mm | - | 578 W/m² | - |
| 1778078007 | 9.44° C | 46% | 1016.8 hPa | 0 mm | - | 605 W/m² | - |
| 1778077707 | 8.89° C | 44% | 1016.6 hPa | 0 mm | - | 585 W/m² | - |
| 1778077404 | 8.89° C | 48% | 1016.6 hPa | 0 mm | - | 541 W/m² | - |
| 1778077102 | 8.33° C | 45% | 1016.6 hPa | 0 mm | - | 244 W/m² | - |
| 1778076801 | 8.33° C | 46% | 1016.7 hPa | 0 mm | - | 420 W/m² | - |
| 1778076518 | 8.33° C | 45% | 1016.6 hPa | 0 mm | - | 422 W/m² | - |
| 1778076210 | 8.33° C | 45% | 1016.6 hPa | 0 mm | - | 448 W/m² | - |
| 1778075905 | 8.33° C | 45% | 1016.6 hPa | 0 mm | - | 390 W/m² | - |
| 1778075604 | 7.78° C | 46% | 1016.6 hPa | 0 mm | - | 285 W/m² | - |
| 1778075303 | 7.78° C | 48% | 1016.6 hPa | 0 mm | - | 417 W/m² | - |
| 1778075000 | 7.22° C | 49% | 1016.5 hPa | 0 mm | - | 360 W/m² | - |
| 1778074699 | 7.22° C | 49% | 1016.6 hPa | 0 mm | - | 276 W/m² | - |
| 1778074395 | 7.22° C | 51% | 1016.5 hPa | 0 mm | - | 139 W/m² | - |
| 1778074092 | 7.22° C | 52% | 1016.5 hPa | 0 mm | - | 199 W/m² | - |
| 1778073808 | 7.22° C | 54% | 1016.5 hPa | 0 mm | - | 158 W/m² | - |
| 1778073505 | 6.67° C | 55% | 1016.5 hPa | 0 mm | - | 134 W/m² | - |
| 1778073201 | 6.67° C | 56% | 1016.4 hPa | 0 mm | - | 107 W/m² | - |
| 1778072899 | 6.67° C | 54% | 1016.5 hPa | 0 mm | - | 125 W/m² | - |
* Rain latest hour (hover to see other rain measurements)
** Current wind speed in m/s (hover to see current wind gust speed)